Highgate, VT

4:36 PM EST on November 22, 2019 (GMT -0500)
Franklin County State

Weather History for KFSO - September, 2019

Change the Weather History Date:

Thursday, September 12, 2019

  Actual Average (WUND) Record (WUND)
Temperature  
Mean Temperature 57 °F -  
Max Temperature 69 °F - - (-1)
Min Temperature 46 °F - - (-1)
Degree Days  
Heating Degree Days 8    
Growing Degree Days 7 (Base 50)    
Moisture  
Dew Point 50 °F    
Average Humidity 74    
Maximum Humidity 94    
Minimum Humidity 44    
Precipitation  
Precipitation 0.00 in - - ()
Sea Level Pressure  
Sea Level Pressure 30.24 in    
Wind  
Wind Speed 5 mph (North)    
Max Wind Speed 12 mph    
Max Gust Speed 17 mph    
Visibility 10 miles    
Events      
Averages and records for this station are not official NWS values.
T = Trace of Precipitation, MM = Missing Value Source: NWS Daily Summary

Daily Weather History Graph

Daily Weather History Graph

Search for Another Location

Airport or City:

Astronomy

Sep. 12, 2019 Rise Set
Actual Time 6:27 AM EDT 7:09 PM EDT
Civil Twilight 5:57 AM EDT 7:38 PM EDT
Nautical Twilight 5:22 AM EDT 8:13 PM EDT
Astronomical Twilight 4:45 AM EDT 8:50 PM EDT
Moon 6:57 PM EDT (9/12) 4:36 AM EDT (9/12)
Length of Visible Light 13h 41m
Length of Day
12h 42m
Waxing Gibbous, 98% of the Moon is Illuminated
Sep 12
Waxing Gibbous
Sep 14
Full
Sep 21
Last Quarter
Sep 28
New
Oct 5
First Quarter

Hourly Weather History & Observations

Time (EDT) Temp. Dew Point Humidity Pressure Visibility Wind Dir Wind Speed Gust Speed Precip Events Conditions
12:16 AM 59.2 °F 51.6 °F 76% 30.14 in 10.0 mi North 4.6 mph - N/A   Overcast
12:36 AM 59.0 °F 50.9 °F 74% 30.13 in 10.0 mi North 4.6 mph - N/A   Overcast
12:55 AM 58.5 °F 51.3 °F 77% 30.14 in 10.0 mi North 4.6 mph - N/A   Overcast
1:15 AM 58.1 °F 50.9 °F 77% 30.14 in 10.0 mi NNE 3.5 mph - N/A   Mostly Cloudy
1:35 AM 57.6 °F 51.3 °F 79% 30.14 in 10.0 mi NNE 4.6 mph - N/A   Mostly Cloudy
1:56 AM 57.6 °F 51.8 °F 81% 30.14 in 10.0 mi North 4.6 mph - N/A   Overcast
2:15 AM 57.6 °F 52.0 °F 82% 30.14 in 10.0 mi North 4.6 mph - N/A   Overcast
2:36 AM 57.4 °F 52.2 °F 83% 30.13 in 10.0 mi North 4.6 mph - N/A   Overcast
2:55 AM 57.2 °F 52.5 °F 84% 30.13 in 10.0 mi North 4.6 mph - N/A   Overcast
3:15 AM 56.7 °F 52.7 °F 87% 30.13 in 10.0 mi North 4.6 mph - N/A   Mostly Cloudy
3:36 AM 57.2 °F 52.9 °F 85% 30.14 in 10.0 mi North 6.9 mph - N/A   Overcast
3:56 AM 56.8 °F 53.1 °F 87% 30.15 in 10.0 mi North 5.8 mph - N/A   Overcast
4:15 AM 56.8 °F 53.2 °F 88% 30.15 in 10.0 mi North 5.8 mph - N/A   Overcast
4:35 AM 56.7 °F 53.6 °F 89% 30.15 in 10.0 mi North 4.6 mph - N/A   Overcast
4:56 AM 56.7 °F 53.8 °F 90% 30.15 in 10.0 mi Calm Calm - N/A   Overcast
5:15 AM 56.5 °F 54.0 °F 91% 30.15 in 10.0 mi North 3.5 mph - N/A   Overcast
5:36 AM 56.5 °F 54.1 °F 92% 30.16 in 10.0 mi North 4.6 mph - N/A   Overcast
5:55 AM 56.3 °F 54.0 °F 92% 30.16 in 10.0 mi North 4.6 mph - N/A   Mostly Cloudy
6:16 AM 56.3 °F 54.0 °F 92% 30.17 in 10.0 mi North 3.5 mph - N/A   Mostly Cloudy
6:35 AM 56.3 °F 54.1 °F 92% 30.17 in 10.0 mi North 3.5 mph - N/A   Overcast
6:55 AM 56.3 °F 54.1 °F 92% 30.19 in 10.0 mi North 3.5 mph - N/A   Overcast
7:15 AM 56.3 °F 54.5 °F 94% 30.19 in 10.0 mi North 5.8 mph - N/A   Mostly Cloudy
7:36 AM 56.3 °F 54.5 °F 94% 30.20 in 10.0 mi North 5.8 mph - N/A   Mostly Cloudy
7:55 AM 56.3 °F 54.5 °F 94% 30.20 in 10.0 mi North 5.8 mph - N/A   Scattered Clouds
8:15 AM 56.5 °F 54.5 °F 93% 30.21 in 10.0 mi North 5.8 mph - N/A   Mostly Cloudy
8:35 AM 57.2 °F 54.0 °F 89% 30.22 in 10.0 mi North 5.8 mph - N/A   Overcast
8:55 AM 58.1 °F 53.6 °F 85% 30.23 in 10.0 mi North 5.8 mph - N/A   Overcast
9:16 AM 58.3 °F 52.9 °F 82% 30.24 in 10.0 mi North 8.1 mph - N/A   Overcast
9:35 AM 58.6 °F 53.6 °F 83% 30.24 in 10.0 mi NNE 6.9 mph - N/A   Mostly Cloudy
9:56 AM 59.9 °F 52.7 °F 77% 30.24 in 10.0 mi NNE 8.1 mph - N/A   Scattered Clouds
10:15 AM 60.3 °F 52.5 °F 76% 30.25 in 10.0 mi NNE 11.5 mph - N/A   Mostly Cloudy
10:55 AM 61.9 °F 52.7 °F 72% 30.24 in 10.0 mi North 9.2 mph - N/A   Scattered Clouds
11:15 AM 62.6 °F 52.7 °F 70% 30.24 in 10.0 mi North 9.2 mph - N/A   Scattered Clouds
11:36 AM 63.7 °F 52.5 °F 67% 30.24 in 10.0 mi North 6.9 mph - N/A   Scattered Clouds
11:55 AM 63.3 °F 52.5 °F 68% 30.25 in 10.0 mi NNW 4.6 mph - N/A   Scattered Clouds
12:16 PM 64.6 °F 52.2 °F 64% 30.25 in 10.0 mi North 11.5 mph - N/A   Scattered Clouds
12:35 PM 63.5 °F 51.3 °F 64% 30.24 in 10.0 mi North 6.9 mph - N/A   Scattered Clouds
12:56 PM 66.9 °F 50.2 °F 55% 30.25 in 10.0 mi NNW 6.9 mph - N/A   Scattered Clouds
1:16 PM 66.6 °F 46.4 °F 48% 30.25 in 10.0 mi NNE 9.2 mph 16.1 mph N/A   Scattered Clouds
1:36 PM 67.3 °F 48.0 °F 50% 30.24 in 10.0 mi North 10.4 mph - N/A   Scattered Clouds
1:55 PM 67.3 °F 48.0 °F 50% 30.25 in 10.0 mi North 9.2 mph - N/A   Mostly Cloudy
2:16 PM 65.8 °F 47.3 °F 51% 30.25 in 10.0 mi North 9.2 mph - N/A   Overcast
2:35 PM 66.9 °F 48.4 °F 51% 30.25 in 10.0 mi North 5.8 mph - N/A   Mostly Cloudy
2:56 PM 67.1 °F 48.9 °F 52% 30.25 in 10.0 mi North 6.9 mph - N/A   Mostly Cloudy
3:15 PM 68.4 °F 48.9 °F 50% 30.25 in 10.0 mi North 4.6 mph - N/A   Mostly Cloudy
3:35 PM 68.9 °F 47.3 °F 46% 30.26 in 10.0 mi North 9.2 mph - N/A   Scattered Clouds
3:56 PM 67.8 °F 48.2 °F 49% 30.26 in 10.0 mi North 9.2 mph 17.3 mph N/A   Scattered Clouds
4:16 PM 68.4 °F 46.9 °F 46% 30.26 in 10.0 mi North 9.2 mph - N/A   Scattered Clouds
4:36 PM 67.6 °F 46.4 °F 46% 30.27 in 10.0 mi North 6.9 mph - N/A   Scattered Clouds
4:55 PM 68.0 °F 45.9 °F 45% 30.27 in 10.0 mi North 9.2 mph - N/A   Clear
5:15 PM 67.3 °F 44.6 °F 44% 30.28 in 10.0 mi North 9.2 mph - N/A   Clear
5:35 PM 67.1 °F 45.3 °F 45% 30.28 in 10.0 mi North 6.9 mph - N/A   Clear
5:56 PM 66.7 °F 44.4 °F 44% 30.30 in 10.0 mi North 5.8 mph - N/A   Clear
6:16 PM 65.3 °F 44.1 °F 46% 30.30 in 10.0 mi North 6.9 mph - N/A   Clear
6:36 PM 63.7 °F 44.4 °F 50% 30.31 in 10.0 mi NNE 4.6 mph - N/A   Clear
6:55 PM 60.6 °F 45.3 °F 57% 30.31 in 10.0 mi NNE 4.6 mph - N/A   Clear
7:15 PM 57.6 °F 46.9 °F 68% 30.32 in 10.0 mi Calm Calm - N/A   Clear
7:36 PM 55.2 °F 48.7 °F 79% 30.32 in 10.0 mi NE 3.5 mph - N/A   Clear
7:55 PM 56.1 °F 45.0 °F 66% 30.33 in 10.0 mi NNE 3.5 mph - N/A   Clear
8:15 PM 56.7 °F 43.9 °F 62% 30.33 in 10.0 mi NE 3.5 mph - N/A   Clear
8:35 PM 54.1 °F 45.7 °F 73% 30.34 in 10.0 mi Calm Calm - N/A   Clear
8:56 PM 52.2 °F 47.5 °F 84% 30.35 in 10.0 mi Calm Calm - N/A   Clear
9:16 PM 50.5 °F 47.3 °F 89% 30.35 in 10.0 mi Calm Calm - N/A   Clear
9:35 PM 48.9 °F 46.8 °F 92% 30.35 in 10.0 mi Calm Calm - N/A   Clear
9:55 PM 48.6 °F 46.8 °F 93% 30.35 in 10.0 mi Calm Calm - N/A   Clear
10:15 PM 48.0 °F 46.4 °F 94% 30.36 in 10.0 mi Calm Calm - N/A   Clear
10:35 PM 48.2 °F 46.2 °F 93% 30.36 in 10.0 mi East 3.5 mph - N/A   Clear
10:56 PM 48.2 °F 45.9 °F 92% 30.37 in 10.0 mi East 3.5 mph - N/A   Clear
11:15 PM 48.2 °F 45.9 °F 92% 30.37 in 10.0 mi East 3.5 mph - N/A   Clear
11:35 PM 46.9 °F 44.8 °F 92% 30.37 in 10.0 mi East 3.5 mph - N/A   Clear
11:55 PM 47.5 °F 45.5 °F 93% 30.37 in 10.0 mi East 3.5 mph - N/A   Clear